Yankton, SD

2:07 PM CDT on April 26, 2017 (GMT -0500)
Gurney Municipal

Weather History for KYKN - October, 2014

Change the Weather History Date:

Friday, October 31, 2014

  Actual Average Record
Temperature  
Mean Temperature 28 °F -  
Max Temperature 39 °F 55 °F 92 °F (1950)
Min Temperature 17 °F 33 °F 14 °F (1991)
Degree Days  
Heating Degree Days 37    
Moisture  
Dew Point 18 °F    
Average Humidity 62    
Maximum Humidity 93    
Minimum Humidity 39    
Precipitation  
Precipitation 0.00 in - - ()
Sea Level Pressure  
Sea Level Pressure 30.52 in    
Wind  
Wind Speed 9 mph (NE)    
Max Wind Speed 16 mph    
Max Gust Speed 24 mph    
Visibility 10 miles    
Events      
Averages and records for this station are not official NWS values.
T = Trace of Precipitation, MM = Missing Value Source: NWS Daily Summary

Daily Weather History Graph

Daily Weather History Graph

Search for Another Location

Airport or City:

Trip Planner

Search our weather history database for the weather conditions in past years. The results will help you decide how hot, cold, wet, or windy it might be!

Date:

Astronomy

Oct. 31, 2014 Rise Set
Actual Time 8:02 AM CDT 6:23 PM CDT
Civil Twilight 7:33 AM CDT 6:52 PM CDT
Nautical Twilight 6:59 AM CDT 7:25 PM CDT
Astronomical Twilight 6:26 AM CDT 7:58 PM CDT
Moon 2:47 PM CDT (10/31) 12:42 AM CDT (10/31)
Length of Visible Light 11h 19m
Length of Day
10h 20m
First Quarter, 57% of the Moon is Illuminated
Oct 31
First Quarter
Nov 6
Full
Nov 14
Last Quarter
Nov 22
New
Nov 29
First Quarter

Hourly Weather History & Observations

Time (CDT) Temp. Windchill Dew Point Humidity Pressure Visibility Wind Dir Wind Speed Gust Speed Precip Events Conditions
12:15 AM 35.6 °F 26.2 °F 21.2 °F 56% 30.51 in 10.0 mi North 15.0 mph 23.0 mph N/A   Overcast
12:35 AM 35.6 °F 26.2 °F 23.0 °F 60% 30.52 in 10.0 mi NNE 15.0 mph - N/A   Overcast
12:55 AM 33.8 °F 23.5 °F 21.2 °F 60% 30.53 in 10.0 mi North 16.1 mph 24.2 mph N/A   Mostly Cloudy
1:15 AM 30.2 °F 20.8 °F 19.4 °F 64% 30.54 in 10.0 mi North 11.5 mph 16.1 mph N/A   Partly Cloudy
1:35 AM 30.2 °F 23.4 °F 19.4 °F 64% 30.55 in 10.0 mi NNW 6.9 mph - N/A   Clear
1:55 AM 28.4 °F 20.4 °F 19.4 °F 69% 30.54 in 10.0 mi NNW 8.1 mph - N/A   Clear
2:15 AM 28.4 °F 21.2 °F 19.4 °F 69% 30.55 in 10.0 mi NNW 6.9 mph - N/A   Clear
2:35 AM 28.4 °F 20.4 °F 19.4 °F 69% 30.55 in 10.0 mi NNW 8.1 mph - N/A   Clear
2:55 AM 26.6 °F 17.5 °F 19.4 °F 74% 30.55 in 10.0 mi NNW 9.2 mph - N/A   Clear
3:15 AM 26.6 °F 17.5 °F 19.4 °F 74% 30.55 in 10.0 mi North 9.2 mph - N/A   Clear
3:35 AM 26.6 °F 19.1 °F 19.4 °F 74% 30.55 in 10.0 mi NNW 6.9 mph - N/A   Clear
3:55 AM 26.6 °F 18.2 °F 19.4 °F 74% 30.56 in 10.0 mi NNW 8.1 mph - N/A   Clear
4:15 AM 26.6 °F 18.2 °F 19.4 °F 74% 30.56 in 10.0 mi NNW 8.1 mph - N/A   Clear
4:35 AM 24.8 °F 14.6 °F 19.4 °F 80% 30.56 in 10.0 mi NNW 10.4 mph - N/A   Clear
4:55 AM 24.8 °F 14.6 °F 19.4 °F 80% 30.57 in 10.0 mi NNW 10.4 mph - N/A   Clear
5:15 AM 24.8 °F 16.1 °F 19.4 °F 80% 30.57 in 10.0 mi NNW 8.1 mph - N/A   Clear
5:35 AM 23.0 °F 11.7 °F 19.4 °F 86% 30.58 in 10.0 mi NNW 11.5 mph - N/A   Clear
5:55 AM 23.0 °F 13.1 °F 17.6 °F 80% 30.59 in 10.0 mi NNW 9.2 mph - N/A   Clear
6:15 AM 21.2 °F 10.9 °F 17.6 °F 86% 30.59 in 10.0 mi NW 9.2 mph - N/A   Clear
6:35 AM 21.2 °F 10.9 °F 17.6 °F 86% 30.59 in 10.0 mi NNW 9.2 mph - N/A   Clear
6:55 AM 19.4 °F 9.5 °F 15.8 °F 86% 30.59 in 10.0 mi NW 8.1 mph - N/A   Clear
7:15 AM 19.4 °F 8.6 °F 15.8 °F 86% 30.59 in 10.0 mi NW 9.2 mph - N/A   Clear
7:35 AM 19.4 °F 9.5 °F 15.8 °F 86% 30.59 in 10.0 mi NW 8.1 mph - N/A   Clear
7:55 AM 17.6 °F 7.3 °F 15.8 °F 93% 30.59 in 10.0 mi NW 8.1 mph - N/A   Clear
8:15 AM 17.6 °F 7.3 °F 15.8 °F 93% 30.59 in 10.0 mi NW 8.1 mph - N/A   Clear
8:35 AM 19.4 °F 11.5 °F 15.8 °F 86% 30.59 in 10.0 mi NNW 5.8 mph - N/A   Clear
8:55 AM 19.4 °F 10.4 °F 17.6 °F 93% 30.60 in 10.0 mi NW 6.9 mph - N/A   Clear
9:15 AM 21.2 °F 12.6 °F 17.6 °F 86% 30.60 in 10.0 mi NNW 6.9 mph - N/A   Clear
9:35 AM 24.8 °F 16.9 °F 19.4 °F 80% 30.61 in 10.0 mi NNW 6.9 mph - N/A   Clear
9:55 AM 24.8 °F 17.9 °F 21.2 °F 86% 30.61 in 10.0 mi North 5.8 mph - N/A   Clear
10:15 AM 26.6 °F 17.5 °F 21.2 °F 80% 30.61 in 10.0 mi NNE 9.2 mph - N/A   Clear
10:35 AM 28.4 °F 21.2 °F 21.2 °F 74% 30.61 in 10.0 mi NE 6.9 mph - N/A   Clear
10:55 AM 30.2 °F 23.4 °F 19.4 °F 64% 30.61 in 10.0 mi NE 6.9 mph - N/A   Clear
11:15 AM 32.0 °F 26.4 °F 19.4 °F 60% 30.61 in 10.0 mi NE 5.8 mph - N/A   Clear
11:35 AM 33.8 °F 26.4 °F 19.4 °F 56% 30.60 in 10.0 mi East 9.2 mph - N/A   Clear
11:55 AM 33.8 °F 29.6 °F 19.4 °F 56% 30.61 in 10.0 mi East 4.6 mph - N/A   Clear
12:15 PM 33.8 °F - 17.6 °F 52% 30.59 in 10.0 mi Calm Calm - N/A   Clear
12:35 PM 35.6 °F - 17.6 °F 48% 30.59 in 10.0 mi Calm Calm - N/A   Clear
12:55 PM 35.6 °F 30.7 °F 17.6 °F 48% 30.58 in 10.0 mi East 5.8 mph - N/A   Clear
1:35 PM 37.4 °F 32.1 °F 17.6 °F 45% 30.55 in 10.0 mi East 6.9 mph - N/A   Clear
1:55 PM 37.4 °F 33.8 °F 15.8 °F 41% 30.54 in 10.0 mi East 4.6 mph - N/A   Clear
2:15 PM 37.4 °F 33.8 °F 17.6 °F 45% 30.54 in 10.0 mi South 4.6 mph - N/A   Clear
2:35 PM 37.4 °F - 15.8 °F 41% 30.52 in 10.0 mi Calm Calm - N/A   Clear
2:55 PM 39.2 °F 37.0 °F 17.6 °F 42% 30.51 in 10.0 mi South 3.5 mph - N/A   Clear
3:15 PM 39.2 °F 37.0 °F 15.8 °F 39% 30.50 in 10.0 mi South 3.5 mph - N/A   Clear
3:35 PM 39.2 °F - 17.6 °F 42% 30.49 in 10.0 mi Calm Calm - N/A   Clear
3:55 PM 39.2 °F 35.0 °F 15.8 °F 39% 30.48 in 10.0 mi SSE 5.8 mph - N/A   Clear
4:15 PM 39.2 °F 33.6 °F 17.6 °F 42% 30.48 in 10.0 mi SSE 8.1 mph - N/A   Clear
4:35 PM 39.2 °F 34.2 °F 15.8 °F 39% 30.47 in 10.0 mi SE 6.9 mph - N/A   Clear
4:55 PM 39.2 °F 35.0 °F 17.6 °F 42% 30.47 in 10.0 mi SE 5.8 mph - N/A   Clear
5:15 PM 39.2 °F 35.0 °F 17.6 °F 42% 30.47 in 10.0 mi ESE 5.8 mph - N/A   Clear
5:35 PM 39.2 °F 35.0 °F 17.6 °F 42% 30.46 in 10.0 mi ESE 5.8 mph - N/A   Clear
5:55 PM 37.4 °F 32.8 °F 17.6 °F 45% 30.46 in 10.0 mi ESE 5.8 mph - N/A   Clear
6:15 PM 37.4 °F 32.8 °F 17.6 °F 45% 30.45 in 10.0 mi East 5.8 mph - N/A   Clear
6:35 PM 37.4 °F 33.8 °F 17.6 °F 45% 30.45 in 10.0 mi ESE 4.6 mph - N/A   Clear
6:55 PM 35.6 °F 30.7 °F 17.6 °F 48% 30.44 in 10.0 mi East 5.8 mph - N/A   Clear
7:15 PM 35.6 °F 29.9 °F 17.6 °F 48% 30.44 in 10.0 mi East 6.9 mph - N/A   Clear
7:35 PM 33.8 °F 27.7 °F 17.6 °F 52% 30.43 in 10.0 mi East 6.9 mph - N/A   Clear
7:55 PM 33.8 °F 28.6 °F 17.6 °F 52% 30.43 in 10.0 mi ESE 5.8 mph - N/A   Clear
8:15 PM 33.8 °F 29.6 °F 17.6 °F 52% 30.43 in 10.0 mi ESE 4.6 mph - N/A   Clear
8:35 PM 33.8 °F 27.7 °F 17.6 °F 52% 30.42 in 10.0 mi SE 6.9 mph - N/A   Clear
8:55 PM 33.8 °F 27.7 °F 17.6 °F 52% 30.43 in 10.0 mi SE 6.9 mph - N/A   Clear
9:15 PM 33.8 °F 27.7 °F 17.6 °F 52% 30.43 in 10.0 mi SE 6.9 mph - N/A   Clear
9:35 PM 33.8 °F 27.0 °F 17.6 °F 52% 30.42 in 10.0 mi SSE 8.1 mph - N/A   Clear
9:55 PM 33.8 °F 27.0 °F 17.6 °F 52% 30.42 in 10.0 mi SE 8.1 mph - N/A   Clear
10:15 PM 30.2 °F 23.4 °F 17.6 °F 60% 30.43 in 10.0 mi SSE 6.9 mph - N/A   Clear
10:35 PM 32.0 °F 24.8 °F 17.6 °F 55% 30.43 in 10.0 mi SE 8.1 mph - N/A   Clear
10:55 PM 30.2 °F 23.4 °F 17.6 °F 60% 30.42 in 10.0 mi ESE 6.9 mph - N/A   Clear
11:15 PM 30.2 °F 23.4 °F 17.6 °F 60% 30.42 in 10.0 mi SE 6.9 mph - N/A   Clear
11:35 PM 28.4 °F 21.2 °F 17.6 °F 64% 30.42 in 10.0 mi SE 6.9 mph - N/A   Clear
11:55 PM 30.2 °F 21.9 °F 19.4 °F 64% 30.41 in 10.0 mi SE 9.2 mph - N/A   Clear